Content
SEND FEEDBACK

Daily
Averages
Monthly
Summary
United States of America

MANGILAO, GUAM


Home > North America > United States > Guam
Elevation: 60 feet     Latitude: 13 27N     Longitude: 144 49E

WEATHER
 
SELECT A DAY
Number of Records: 341,794;   Date Range: 1/1/95 - 7/23/14
 
SHARE

PRINT THIS DATA

[ ← Previous Day ]
WEATHER ALMANAC - SEPTEMBER 22, 2013
[ Next Day → ]
[ °C ]   °F
Weather ElementAverageHighLow
Temperature77 °F78.8 °F (5:14 am) (10:08 am)
Dewpoint75.8 °F77.4 °F (5:58 pm) (7:00 pm)
Humidity95.8 %100 % (12:52 am)94 % (12:40 am)
Barometer29.38 in29.71 in (10:43 pm) (7:00 pm)
Wind Speed12.3 mph23 mph (2:18 am)
Wind Gust27.6 mph (12:40 am)
Weather ElementAverage
Visibility8.8 mi
Wind DirectionSSW (216.4 °)

Weather ElementTotal
Precipitation1.17 in
Heating Degree Days25.6 (Base 65)
Averaged from 118 records on September 22, 2013
WEATHER CONDITIONS BREAKOUT
WIND DIRECTION BREAKOUT
WEATHER BY HOUR - SEPTEMBER 22, 2013
[ °C ]   °F
Local TimeTemperatureDewpointHumidityBarometerVisibilityWind DirectionWind SpeedGust SpeedPrecipitationEventsConditions
12:40 AM77.0 °F75.2 °F94 %29.63 in3.0 miSW (230°)11.5 mph27.6 mphRainLight Rain
12:50 AM77.0 °F75.2 °F94 %29.63 in10.0 miSW (230°)12.7 mphScattered Clouds
12:52 AM77.0 °F77.0 °F100 %29.63 in10.0 miWSW (240°)11.5 mphRainLight Rain
12:58 AM77.7 °F76.5 °F96 %29.51 in10.0 miWSW (240°)13.8 mph19.6 mph0.08 inRainLight Rain
1:40 AM77.0 °F75.2 °F94 %29.62 in9.0 miSSW (210°)8.1 mphPartly Cloudy
1:55 AM77.0 °F75.2 °F94 %29.62 in10.0 miSSW (200°)9.2 mphRainLight Rain
1:58 AM77.2 °F76.1 °F96 %29.50 in10.0 miSSW (200°)8.1 mph0.03 inRainLight Rain
2:13 AM77.0 °F77.0 °F100 %29.63 in4.0 miSW (230°)15.0 mph19.6 mphRainHeavy Rain
2:18 AM77.0 °F77.0 °F100 %29.63 in2.5 miSW (230°)23.0 mphRainHeavy Rain
2:23 AM77.0 °F75.2 °F94 %29.63 in1.2 miSW (230°)18.4 mph23.0 mphRainHeavy Rain
2:28 AM77.0 °F75.2 °F94 %29.62 in1.5 miSW (220°)13.8 mphRainLight Rain
2:33 AM75.2 °F75.2 °F100 %29.62 in3.0 miSW (230°)15.0 mphRainLight Rain
2:36 AM75.2 °F75.2 °F100 %29.62 in7.0 miSW (220°)15.0 mphMostly Cloudy
2:41 AM75.2 °F75.2 °F100 %29.62 in10.0 miSW (220°)11.5 mphLight Drizzle
2:51 AM75.2 °F75.2 °F100 %29.62 in10.0 miSW (220°)12.7 mphPartly Cloudy
2:54 AM75.2 °F75.2 °F100 %29.63 in10.0 miSW (220°)12.7 mphRainLight Rain
2:58 AM75.9 °F74.7 °F96 %29.51 in10.0 miSSW (210°)11.5 mph0.26 inRainLight Rain
2:59 AM75.2 °F75.2 °F100 %29.63 in10.0 miSSW (210°)10.4 mphClear
3:58 AM76.3 °F75.4 °F97 %29.49 in10.0 miSSW (200°)9.2 mph0.00 inScattered Clouds
4:58 AM77.7 °F76.8 °F97 %29.51 in10.0 miSSW (200°)9.2 mphPartly Cloudy
5:14 AM78.8 °F77.0 °F94 %29.64 in10.0 miSouth (180°)11.5 mphRainLight Rain
5:24 AM78.8 °F77.0 °F94 %29.64 in3.0 miSSW (210°)10.4 mphRainLight Rain
5:28 AM77.0 °F77.0 °F100 %29.64 in3.0 miSSW (200°)9.2 mphMostly Cloudy
5:33 AM77.0 °F77.0 °F100 %29.64 in10.0 miSSW (200°)9.2 mphMostly Cloudy
5:43 AM77.0 °F75.2 °F94 %29.64 in10.0 miSSW (200°)8.1 mphMostly Cloudy
5:58 AM76.8 °F75.6 °F96 %29.52 in10.0 miSSW (210°)10.4 mph0.04 inScattered Clouds
6:06 AM77.0 °F75.2 °F94 %29.65 in10.0 miSW (220°)10.4 mphRainLight Rain
6:16 AM77.0 °F77.0 °F100 %29.65 in2.0 miSW (220°)12.7 mphRainRain
6:26 AM77.0 °F77.0 °F100 %29.65 in9.0 miSSW (200°)10.4 mphRainLight Rain
6:32 AM77.0 °F77.0 °F100 %29.65 in9.0 miSSW (200°)11.5 mphScattered Clouds
6:33 AM77.0 °F77.0 °F100 %29.65 in9.0 miSSW (200°)10.4 mphRainLight Rain
6:47 AM77.0 °F77.0 °F100 %29.65 in10.0 miSSW (200°)9.2 mphPartly Cloudy
6:58 AM77.2 °F76.6 °F98 %29.53 in10.0 miSSW (200°)10.4 mph0.11 inPartly Cloudy
7:00 AM77.0 °F77.0 °F100 %29.65 in10.0 miSSW (200°)9.2 mphLight Drizzle
7:15 AM78.8 °F77.0 °F94 %29.66 in8.0 miSSW (210°)9.2 mphRainLight Rain
7:23 AM78.8 °F77.0 °F94 %29.66 in10.0 miSSW (200°)12.7 mphMostly Cloudy
7:26 AM78.8 °F77.0 °F94 %29.66 in10.0 miSSW (200°)10.4 mphRainLight Rain
7:41 AM78.8 °F77.0 °F94 %29.66 in7.0 miSSW (200°)11.5 mphRainLight Rain
7:52 AM78.8 °F77.0 °F94 %29.67 in10.0 miSSW (210°)12.7 mphOvercast
7:57 AM78.8 °F77.0 °F94 %29.67 in8.0 miSSW (210°)13.8 mphMostly Cloudy
7:58 AM78.1 °F77.2 °F97 %29.55 in8.0 miSSW (210°)12.7 mph0.04 inMostly Cloudy
8:01 AM78.8 °F77.0 °F94 %29.67 in7.0 miSW (220°)13.8 mphRainRain
8:06 AM78.8 °F77.0 °F94 %29.68 in7.0 miSW (220°)16.1 mphRainLight Rain
8:11 AM78.8 °F77.0 °F94 %29.68 in9.0 miSW (230°)15.0 mphRainLight Rain
8:16 AM78.8 °F77.0 °F94 %29.68 in10.0 miSW (230°)15.0 mphRainLight Rain
8:26 AM77.0 °F77.0 °F100 %29.68 in10.0 miSW (220°)12.7 mphScattered Clouds
8:41 AM77.0 °F77.0 °F100 %29.68 in10.0 miSSW (210°)10.4 mphRainLight Rain
8:58 AM76.8 °F75.7 °F96 %29.57 in9.0 miSW (220°)16.1 mph0.03 inRainLight Rain
9:08 AM77.0 °F75.2 °F94 %29.69 in10.0 miSW (220°)16.1 mphRainRain
9:28 AM77.0 °F75.2 °F94 %29.70 in7.0 miSW (230°)19.6 mphRainRain
9:33 AM75.2 °F75.2 °F100 %29.70 in7.0 miSW (230°)20.7 mph26.5 mphRainLight Rain
9:58 AM75.7 °F74.8 °F97 %29.58 in7.0 miSW (230°)18.4 mph27.6 mph0.10 inRainLight Rain
10:08 AM0.0 °F0.0 °FSW (220°)16.1 mph24.2 mph
10:09 AM75.2 °F73.4 °F94 %29.69 in10.0 miSW (230°)16.1 mph24.2 mphRainLight Rain
10:58 AM76.1 °F75.4 °F98 %29.56 in9.0 miSW (230°)13.8 mph0.14 inRainLight Rain
11:48 AM77.0 °F75.2 °F94 %29.67 in9.0 miSW (230°)13.8 mphRainLight Rain
11:58 AM76.1 °F75.4 °F98 %29.54 in10.0 miWSW (240°)11.5 mph0.10 inRainLight Rain
12:03 PM77.0 °F75.2 °F94 %29.66 in10.0 miSW (230°)12.7 mphRainLight Rain
12:08 PM77.0 °F75.2 °F94 %29.66 in10.0 miWSW (240°)11.5 mphRainLight Rain
12:28 PM77.0 °F77.0 °F100 %29.65 in10.0 miSW (230°)12.7 mphPartly Cloudy
12:58 PM77.7 °F76.6 °F96 %29.51 in10.0 miSW (220°)15.0 mph0.04 inClear
1:30 PM77.0 °F77.0 °F100 %29.63 in10.0 miSW (220°)15.0 mphRainLight Rain
1:40 PM77.0 °F77.0 °F100 %29.63 in10.0 miSW (220°)10.4 mphPartly Cloudy
1:58 PM78.1 °F77.0 °F96 %29.51 in10.0 miSW (220°)11.5 mph0.02 inPartly Cloudy
2:23 PM78.8 °F77.0 °F94 %29.62 in10.0 miSSW (200°)12.7 mphMostly Cloudy
2:34 PM78.8 °F77.0 °F94 %29.62 in10.0 miSSW (200°)11.5 mphRainLight Rain
2:39 PM78.8 °F77.0 °F94 %29.62 in10.0 miSSW (200°)11.5 mphRainLight Rain
2:44 PM78.8 °F77.0 °F94 %29.62 in10.0 miSSW (210°)10.4 mphOvercast
2:46 PM78.8 °F77.0 °F94 %29.62 in10.0 miSSW (210°)10.4 mphLight Drizzle
2:56 PM78.8 °F77.0 °F94 %29.62 in10.0 miSSW (200°)10.4 mphRainLight Rain
2:58 PM78.8 °F77.0 °F94 %29.50 in10.0 miSSW (200°)10.4 mph0.00 inRainLight Rain
3:00 PM78.8 °F77.0 °F94 %29.62 in10.0 miSSW (210°)12.7 mphOvercast
3:04 PM78.8 °F77.0 °F94 %29.62 in10.0 miSSW (210°)10.4 mphLight Drizzle
3:09 PM78.8 °F77.0 °F94 %29.62 in10.0 miSSW (210°)11.5 mph19.6 mphLight Drizzle
3:28 PM78.8 °F77.0 °F94 %29.63 in10.0 miSSW (210°)10.4 mphMostly Cloudy
3:32 PM78.8 °F77.0 °F94 %29.63 in10.0 miSW (220°)11.5 mphRainHeavy Rain
3:43 PM78.8 °F77.0 °F94 %29.63 in10.0 miSW (230°)12.7 mphScattered Clouds
3:58 PM78.3 °F77.2 °F96 %29.52 in7.0 miSW (220°)17.3 mph0.06 inScattered Clouds
4:05 PM78.8 °F77.0 °F94 %29.64 in10.0 miSW (230°)15.0 mphRainLight Rain
4:18 PM78.8 °F77.0 °F94 %29.64 in10.0 miSW (230°)12.7 mphScattered Clouds
4:23 PM78.8 °F77.0 °F94 %29.64 in10.0 miSW (230°)12.7 mphLight Drizzle
4:32 PM78.8 °F77.0 °F94 %29.65 in10.0 miSW (230°)11.5 mphPartly Cloudy
4:45 PM78.8 °F77.0 °F94 %29.64 in10.0 miSW (230°)11.5 mphRainLight Rain
4:56 PM78.8 °F77.0 °F94 %29.64 in10.0 miSW (230°)10.4 mphClear
4:58 PM78.8 °F77.0 °F94 %29.52 in10.0 miSW (230°)10.4 mph0.01 inClear
5:58 PM78.4 °F77.4 °F96 %29.53 in10.0 miSSW (210°)8.1 mphScattered Clouds
6:23 PM78.8 °F77.0 °F94 %29.66 in10.0 miSSW (210°)8.1 mphMostly Cloudy
6:28 PM78.8 °F77.0 °F94 %29.66 in10.0 miSW (220°)8.1 mphScattered Clouds
6:30 PM78.8 °F77.0 °F94 %29.66 in10.0 miSSW (210°)10.4 mphRainRain
6:35 PM78.8 °F77.0 °F94 %29.66 in9.0 miSSW (210°)10.4 mphRainLight Rain
6:40 PM78.8 °F77.0 °F94 %29.67 in9.0 miSSW (210°)10.4 mphRainLight Rain
6:45 PM78.8 °F77.0 °F94 %29.66 in10.0 miSSW (210°)10.4 mphRainLight Rain
6:48 PM78.8 °F77.0 °F94 %29.67 in10.0 miSSW (210°)9.2 mphMostly Cloudy
6:58 PM78.6 °F77.2 °F95 %29.55 in10.0 miSSW (210°)9.2 mph0.01 inMostly Cloudy
7:03 PM78.8 °F77.0 °F94 %29.66 in10.0 miSSW (200°)12.7 mph19.6 mphScattered Clouds
7:04 PM78.8 °F77.0 °F94 %29.66 in10.0 miSSW (200°)12.7 mph19.6 mphRainLight Rain
7:09 PM78.8 °F77.0 °F94 %29.66 in10.0 miSouth (190°)15.0 mph20.7 mphRainLight Rain
7:14 PM78.8 °F77.0 °F94 %29.66 in10.0 miSSW (210°)11.5 mph20.7 mphRainHeavy Rain
7:19 PM78.8 °F77.0 °F94 %29.66 in8.0 miSSW (200°)11.5 mphRainLight Rain
7:20 PM78.8 °F77.0 °F94 %29.67 in8.0 miSSW (210°)10.4 mphMostly Cloudy
7:25 PM78.8 °F77.0 °F94 %29.67 in6.0 miSSW (200°)10.4 mphMostly Cloudy
7:30 PM78.8 °F77.0 °F94 %29.67 in6.0 miSSW (200°)11.5 mphOvercast
7:31 PM78.8 °F77.0 °F94 %29.67 in5.0 miSSW (210°)11.5 mphRainLight Rain
7:41 PM77.0 °F77.0 °F100 %29.68 in4.0 miSW (230°)13.8 mph21.9 mphRainLight Rain
7:46 PM77.0 °F75.2 °F94 %29.68 in7.0 miWSW (240°)16.1 mph21.9 mphRainLight Rain
7:51 PM77.0 °F75.2 °F94 %29.68 in10.0 miWSW (240°)16.1 mphLight Drizzle
7:53 PM77.0 °F75.2 °F94 %29.68 in10.0 miWSW (240°)15.0 mphMostly Cloudy
7:58 PM77.2 °F76.1 °F96 %29.56 in10.0 miWSW (250°)12.7 mph0.07 inScattered Clouds
8:23 PM77.0 °F75.2 °F94 %29.70 in10.0 miSW (230°)12.7 mphRainLight Rain
8:43 PM77.0 °F75.2 °F94 %29.70 in10.0 miSW (220°)9.2 mphPartly Cloudy
8:58 PM76.6 °F75.0 °F95 %29.58 in10.0 miSSW (210°)6.9 mph0.01 inPartly Cloudy
9:58 PM77.0 °F75.7 °F96 %29.59 in10.0 miSW (220°)10.4 mphClear
10:43 PM78.8 °F77.0 °F94 %29.71 in10.0 miSSW (210°)12.7 mphMostly Cloudy
10:58 PM78.8 °F77.0 °F94 %29.59 in9.0 miSW (230°)19.6 mph24.2 mphMostly Cloudy
11:14 PM77.0 °F77.0 °F100 %29.70 in10.0 miSW (230°)15.0 mphLight Drizzle
11:24 PM77.0 °F77.0 °F100 %29.70 in10.0 miSW (230°)13.8 mphRainLight Rain
11:44 PM77.0 °F75.2 °F94 %29.70 in10.0 miSW (220°)15.0 mphRainLight Rain
11:58 PM76.3 °F75.2 °F96 %29.58 in9.0 miSW (220°)12.7 mph0.02 inRainLight Rain
Hourly data recorded from PGUA, located miles away from Mangilao, Guam







STORIES FROM OUR PARTNERS